This demonstration page uses our WeatherBlox Daily Observations layout. Learn more.

41.55636, -103.73856

Hourly Observations for April 14, 2019

Temp ( °F °C ) Dew Point ( °F °C ) Humidity (%) Winds ( mph kmh ) Pressure ( in mb ) Visibility ( mi km ) Precip ( " mm )
12:53 am 00:53 Mostly Cloudy 31 -0.6 29 -1.7 92 92 ESE 9 15 29.88 1012 10 16.09344 0 0
1:53 am 01:53 Partly Cloudy 30 -1.1 28 -2.2 92 92 ESE 9 15 29.85 1011 10 16.09344 0 0
2:53 am 02:53 Clear 30 -1.1 27 -2.8 88 88 E 8 13 29.83 1010 10 16.09344 0 0
3:53 am 03:53 Clear 30 -1.1 27 -2.8 88 88 E 5 7 29.8 1009 10 16.09344 0 0
4:53 am 04:53 Clear 29 -1.7 26 -3.3 89 89 E 3 6 29.8 1009 10 16.09344 0 0
5:53 am 05:53 Clear 28 -2.2 25 -3.9 88 88 E 5 7 29.77 1008 10 16.09344 0 0
6:53 am 06:53 Sunny 33 0.6 29 -1.7 85 85 ESE 5 7 29.74 1007 10 16.09344 0 0
7:53 am 07:53 Sunny 40 4.4 34 1.1 79 79 SE 5 7 29.74 1007 10 16.09344 0 0
8:53 am 08:53 Sunny 47 8.3 33 0.6 59 59 S 7 11 29.71 1006 10 16.09344 0 0
9:53 am 09:53 Sunny 55 12.8 32 0 42 42 SW 9 15 29.68 1005 10 16.09344 0 0
10:53 am 10:53 Mostly Cloudy 60 15.6 32 0 35 35 W 18 30 29.65 1004 10 16.09344 0 0
11:53 am 11:53 Mostly Sunny 63 17.2 31 -0.6 30 30 W 25 41 29.59 1002 10 16.09344 0 0
12:53 pm 12:53 Mostly Sunny 58 14.4 34 1.1 41 41 W 29 46 29.62 1003 10 16.09344 0 0
1:53 pm 13:53 Mostly Cloudy 58 14.4 34 1.1 41 41 W 26 43 29.62 1003 10 16.09344 0 0
2:53 pm 14:53 Partly Cloudy 60 15.6 34 1.1 38 38 WNW 21 33 29.62 1003 10 16.09344 0 0
4:53 pm 16:53 Partly Cloudy 65 18.3 34 1.1 32 32 W 17 28 29.56 1001 10 16.09344 0 0
5:53 pm 17:53 Sunny 64 17.8 33 0.6 32 32 W 22 35 29.56 1001 10 16.09344 0 0
6:34 pm 18:34 Mostly Cloudy 54 12 39 4 58 58 N 20 31 29.59 1002 10 16.09344 0 0
6:53 pm 18:53 Cloudy 54 12.2 40 4.4 59 59 N 12 19 29.62 1003 10 16.09344 0 0
7:53 pm 19:53 Mostly Cloudy 51 10.6 40 4.4 66 66 Calm 29.62 1003 10 16.09344 0 0
8:53 pm 20:53 Clear 49 9.4 40 4.4 71 71 S 5 7 29.62 1003 10 16.09344 0 0
9:53 pm 21:53 Clear 45 7.2 38 3.3 77 77 E 6 9 29.62 1003 10 16.09344 0 0
10:53 pm 22:53 Clear 50 10 37 2.8 61 61 SW 6 9 29.59 1002 10 16.09344 0 0
11:53 pm 23:53 Clear 53 11.7 34 1.1 48 48 W 12 19 29.59 1002 10 16.09344 0 0

Powered by AerisWeather